Content
SEND FEEDBACK

Daily
Averages
Monthly
Summary
United States of America

MOORINGSPORT, LOUISIANA


Home > North America > United States > Louisiana
Elevation: 60 meters     Latitude: 32 42N     Longitude: 093 58W

WEATHER
 
SELECT A DAY
Number of Records: 185,487;   Date Range: 1/1/95 - 10/23/14
 
SHARE

PRINT THIS DATA

[ ← Previous Day ]
WEATHER ALMANAC - 5 FEBRUARY, 2013
[ Next Day → ]
[ °F ]   °C
Weather ElementAverageHighLow
Temperature12.4 °C17.2 °C (4:53 pm)8 °C (10:45 pm)
Dewpoint11.5 °C13.3 °C (4:53 pm)8 °C (10:45 pm)
Humidity94.5 %100 % (5:17 am)78 % (4:53 pm)
Barometer1015.9 hPa1017.6 hPa (10:19 pm)1013.2 hPa (2:41 am)
Wind Speed1.4 km/h9.3 km/h (2:53 am)
Weather ElementAverage
Visibility6.1 km
Wind DirectionNNE (28 °)

Weather ElementTotal
Precipitation---
Heating Degree Days5.7 (Base 18.3)
Growing Degree Days2.6 (Base 10)
Averaged from 44 records on 5 February, 2013
WEATHER CONDITIONS BREAKOUT
WIND DIRECTION BREAKOUT
WEATHER BY HOUR - 5 FEBRUARY, 2013
[ °F ]   °C
Local TimeTemperatureDewpointHumidityBarometerVisibilityWind DirectionWind SpeedGust SpeedPrecipitationEventsConditions
1:13 AM13 °C12 °C94 %1013.5 hPa14.5 kmCalmOvercast
1:53 AM12.8 °C11.7 °C93 %1013.5 hPa12.9 kmCalmOvercast
2:41 AM13 °C12 °C94 %1013.2 hPa12.9 kmCalmOvercast
2:53 AM12.2 °C11.7 °C97 %1013.2 hPa12.9 kmSSE (150°)9.3 km/hOvercast
3:53 AM12.8 °C11.7 °C93 %1013.2 hPa8 kmCalmOvercast
4:53 AM12.2 °C11.7 °C97 %1013.5 hPa8 kmCalmOvercast
5:17 AM12 °C12 °C100 %1013.5 hPa3.2 kmCalmOvercast
5:27 AM12 °C12 °C100 %1013.9 hPa2.4 kmCalmOvercast
5:46 AM12 °C12 °C100 %1013.9 hPa0.8 kmCalmFogFog
5:53 AM12.2 °C12.2 °C100 %1013.9 hPa0.8 kmCalmFogFog
6:53 AM12.2 °C12.2 °C100 %1014.6 hPa0.8 kmCalmFogFog
7:53 AM12.2 °C12.2 °C100 %1015.2 hPa0.3 kmCalmFogFog
8:19 AM12 °C12 °C100 %1015.9 hPa2.4 kmCalmOvercast
8:36 AM13 °C13 °C100 %1016.3 hPa0.8 kmCalmFogFog
8:53 AM12.8 °C12.8 °C100 %1016.3 hPa0.8 kmCalmFogFog
9:27 AM13 °C13 °C100 %1016.6 hPa1.6 kmCalmOvercast
9:46 AM13 °C13 °C100 %1016.9 hPa4 kmCalmOvercast
9:53 AM13.3 °C12.8 °C97 %1017.3 hPa4.8 kmCalmOvercast
10:13 AM14 °C13 °C94 %1017.3 hPa6.4 kmNorth (10°)7.4 km/hOvercast
10:53 AM14.4 °C12.8 °C90 %1017.3 hPa8 kmEast (80°)5.6 km/hOvercast
11:53 AM15 °C12.8 °C87 %1017.3 hPa11.3 kmENE (60°)5.6 km/hOvercast
12:19 PM15 °C13 °C88 %1016.9 hPa11.3 kmCalmOvercast
12:53 PM15.6 °C12.8 °C83 %1016.6 hPa12.9 kmCalmOvercast
1:53 PM16.1 °C12.8 °C81 %1015.9 hPa12.9 kmSouth (190°)5.6 km/hOvercast
2:53 PM16.1 °C12.8 °C81 %1015.6 hPa12.9 kmSE (130°)7.4 km/hOvercast
3:45 PM16 °C13 °C82 %1015.6 hPa12.9 kmSouth (190°)7.4 km/hMostly Cloudy
3:53 PM16.1 °C12.8 °C81 %1015.2 hPa12.9 kmSSE (150°)5.6 km/hMostly Cloudy
4:53 PM17.2 °C13.3 °C78 %1015.2 hPa12.9 kmESE (110°)5.6 km/hClear
5:53 PM14.4 °C12.2 °C87 %1014.9 hPa12.9 kmSSE (160°)5.6 km/hClear
6:53 PM13.9 °C12.2 °C89 %1015.6 hPa11.3 kmCalmClear
7:53 PM11.1 °C11.1 °C100 %1016.3 hPa6.4 kmCalmClear
8:32 PM11 °C11 °C100 %1016.9 hPa4 kmCalmClear
8:39 PM11 °C10 °C94 %1016.9 hPa8 kmCalmScattered Clouds
8:53 PM11.7 °C11.1 °C96 %1016.9 hPa6.4 kmCalmMostly Cloudy
9:17 PM11 °C10 °C94 %1017.3 hPa2.4 kmCalmClear
9:21 PM10 °C10 °C100 %1017.3 hPa0.8 kmCalmFogFog
9:35 PM9 °C9 °C100 %1017.3 hPa0.3 kmCalmFogFog
9:53 PM9.4 °C9.4 °C100 %1017.3 hPa0.3 kmCalmFogFog
10:19 PM10 °C9 °C94 %1017.6 hPa4.8 kmCalmPartly Cloudy
10:31 PM9 °C9 °C100 %1017.6 hPa2.9 kmCalmClear
10:45 PM8 °C8 °C100 %1017.6 hPa0.8 kmCalmFogFog
10:53 PM8.3 °C8.3 °C100 %1017.6 hPa0.3 kmCalmFogFog
11:16 PM8 °C8 °C100 %1017.6 hPa0.3 kmCalmFogFog
11:53 PM8.9 °C8.3 °C96 %1017.6 hPa0.3 kmCalmFogFog
Hourly data recorded from KDTN, located 0 kilometers away from Mooringsport, Louisiana







STORIES FROM OUR PARTNERS